Overview Statistics Trail Chart Weather Telemetry Raw packets
 

This is the latest recevied weather packets stored in our database for station/object KA1BMF-13. If no packets are shown the sender has not sent any weather packets the latest 10 day(s).

<< 7 8 9 10 11 12 13 >>
Time Temp. Humidity Pressure Rain* Wind** Luminosity Snow
1788518417 20.56° C 100% 1010.2 hPa 0 mm - 7 W/m² -
1788517835 20.56° C 100% 1010.2 hPa 0 mm - 3 W/m² -
1788517220 21.11° C 100% 1010.1 hPa 0 mm - 2 W/m² -
1788516617 21.11° C 100% 1010.1 hPa 0 mm - 0 W/m² -
1788516018 21.11° C 100% 1010 hPa 0 mm - 0 W/m² -
1788515418 21.11° C 100% 1010.2 hPa 0.25 mm - 0 W/m² -
1788514840 21.11° C 100% 1010.2 hPa 1.02 mm - 0 W/m² -
1788514218 21.11° C 99% 1010 hPa 1.78 mm - 0 W/m² -
1788513619 21.11° C 99% 1009.9 hPa 4.32 mm - 0 W/m² -
1788513019 21.11° C 99% 1009.8 hPa 11.94 mm - 0 W/m² -
1788512419 21.11° C 99% 1009.3 hPa 13.72 mm - 0 W/m² -
1788511819 21.11° C 99% 1009.6 hPa 13.72 mm - 0 W/m² -
1788511216 21.11° C 99% 1009.3 hPa 13.46 mm - 0 W/m² -
1788510616 21.11° C 99% 1009.7 hPa 12.95 mm - 0 W/m² -
1788510020 21.67° C 99% 1010.1 hPa 10.41 mm - 0 W/m² -
1788509420 21.67° C 100% 1010.2 hPa 2.79 mm - 0 W/m² -
1788508820 21.67° C 100% 1009.9 hPa 0.76 mm - 0 W/m² -
1788508217 21.67° C 100% 1009.8 hPa 0.76 mm - 0 W/m² -
1788507617 21.67° C 100% 1010.1 hPa 0.25 mm - 0 W/m² -
1788507017 21.67° C 100% 1010.1 hPa 0 mm - 0 W/m² -
1788506417 21.67° C 99% 1010.1 hPa 0 mm - 0 W/m² -
1788505817 21.67° C 99% 1010.3 hPa 0 mm - 0 W/m² -
1788505218 21.67° C 99% 1010.2 hPa 0 mm - 0 W/m² -
1788504618 21.67° C 99% 1010.4 hPa 0 mm - 0 W/m² -
1788504018 21.67° C 99% 1010.5 hPa 0 mm - 0 W/m² -

* Rain latest hour (hover to see other rain measurements)
** Current wind speed in m/s (hover to see current wind gust speed)